This is the latest recevied weather packets stored in our database for station/object SQ8AQL-16. If no packets are shown the sender has not sent any weather packets the latest 10 day(s).
| Time | Temp. | Humidity | Pressure | Rain* | Wind** | Luminosity | Snow |
|---|---|---|---|---|---|---|---|
| 1777667325 | 12.78° C | 54% | 1026.4 hPa | - | - | - | - |
| 1777666424 | 12.78° C | 54% | 1026.3 hPa | - | - | - | - |
| 1777665523 | 14.44° C | 49% | 1026.3 hPa | - | - | - | - |
| 1777664623 | 14.44° C | 49% | 1026.2 hPa | - | - | - | - |
| 1777663721 | 15° C | 48% | 1026.1 hPa | - | - | - | - |
| 1777662820 | 15.56° C | 46% | 1026 hPa | - | - | - | - |
| 1777661919 | 16.67° C | 42% | 1026 hPa | - | - | - | - |
| 1777661019 | 16.67° C | 42% | 1025.9 hPa | - | - | - | - |
| 1777660118 | 16.67° C | 42% | 1025.8 hPa | - | - | - | - |
| 1777659216 | 17.22° C | 41% | 1025.7 hPa | - | - | - | - |
| 1777658316 | 17.78° C | 39% | 1025.6 hPa | - | - | 1 W/m² | - |
| 1777656514 | 18.33° C | 37% | 1025.5 hPa | - | - | 6 W/m² | - |
| 1777655613 | 18.33° C | 37% | 1025.4 hPa | - | - | 13 W/m² | - |
| 1777654712 | 18.89° C | 35% | 1025.4 hPa | - | - | 23 W/m² | - |
| 1777653811 | 19.44° C | 34% | 1025.4 hPa | - | - | 29 W/m² | - |
| 1777652009 | 20° C | 33% | 1025.6 hPa | - | - | 45 W/m² | - |
| 1777651108 | 20.56° C | 32% | 1025.6 hPa | - | - | 38 W/m² | - |
| 1777650207 | 20.56° C | 31% | 1025.7 hPa | - | - | 51 W/m² | - |
| 1777649306 | 21.11° C | 30% | 1025.7 hPa | - | - | 119 W/m² | - |
| 1777648405 | 20.56° C | 30% | 1025.7 hPa | - | - | 106 W/m² | - |
| 1777647505 | 20.56° C | 31% | 1025.7 hPa | - | - | 68 W/m² | - |
| 1777646604 | 20.56° C | 30% | 1025.9 hPa | - | - | 64 W/m² | - |
| 1777645703 | 21.11° C | 29% | 1025.9 hPa | - | - | 73 W/m² | - |
| 1777644801 | 22.78° C | 27% | 1026 hPa | - | - | 101 W/m² | - |
| 1777643900 | 24.44° C | 24% | 1026 hPa | - | - | 181 W/m² | - |
* Rain since midnight (hover to see other rain measurements)
** Current wind speed in m/s (hover to see current wind gust speed)